Ana Sayfa
METAR-TAF:

METAR-TAF

Havaalanları :

Big Spring McMahon-Wrinkle Airport

Big Spring, Teksas, Amerika Birleşik Devletleri

Enlem: 32-12N, Boylam: 101-31W, yükseklik: 784 m

Güncel hava durumu gözlemi

Rapor saat 12:15 UTC de 44 dakika önce yapıldı.
Rüzgar güney/güneydoğudan 21 kt ve 27 kt'a kadar ani rüzgarlar
Sıcaklık 25°C
Nem 61%
Basınç 1011 hPa
Görüş mesafesi: 16.1 km
Açık gökyüzü

METAR: KBPG 161215Z AUTO 16021G27KT 10SM CLR 25/17 A2986 RMK AO2 LTG DSNT E T02510174

Saat: 07:59 (12:59 UTC)


TAF: eksik

4.000'den fazla havaalanı için hava durumu gözlemleri ve tahminleri (METAR ve TAF raporları).

Kullanılabilir istasyonlar harita üzerinde sarı ve kırmızı noktalarla gösterilir.

İstasyonun adını görmek için fareyi noktanın üzerinde gezdirin.

Sonrasında hava gözlem ve tahminlerini görmek için tıklayın.

Haritayı değiştirmek için: yaklaştırmak için siyah artı işaretli yeşil düğmeye ve uzaklaştırmak için de eksi işaretli düğmeye hızla tıklayın; bitişik haritalar için yeşil okları kullanın.


METAR-TAF: